Regional Weather Roundup
Issued by NWS

Home | Current Version | Previous Version | Graphics & Text | Print | Product List | Glossary On
Versions: 1 2 3 4 5 6 7 8 9 10 11 12 13 14 15 16 17 18 19 20 21 22 23 24 25 26 27 28 29 30 31 32 33 34 35 36 37 38 39 40 41 42 43 44 45 46 47 48 49 50
000
ASUS45 KTFX 031010
RWRMT
MONTANA REGIONAL WEATHER ROUNDUP
NATIONAL WEATHER SERVICE GREAT FALLS MT
300 AM MST SAT DEC 03 2016

NOTE: "FAIR" INDICATES FEW OR NO CLOUDS BELOW 12000 FEET WITH NO
SIGNIFICANT WEATHER AND/OR OBSTRUCTIONS TO VISIBILITY.

MTZ001>007-043-031100-
WEST OF THE DIVIDE

CITY           SKY/WX    TMP DP  RH WIND       PRES   REMARKS
KALISPELL      LGT SNOW  32  30  92 S13       29.97F FOG     WCI  22
MULLAN PASS    LGT SNOW  24  22  91 W9        29.92R FOG     WCI  14
ANACONDA         N/A     30  19  64 SW16G24   29.97F WCI  19
DEER LODGE       N/A     27  21  80 CALM      30.00S
EUREKA           N/A     34  27  75 SE13      29.96S WCI  25
HAMILTON         N/A     36  25  64 SE9       30.02F WCI  29
LIBBY            N/A     30  30 100 CALM      29.97R
PLAINS           N/A     35  26  70 CALM      30.02R
RONAN            N/A     34  28  79 CALM      30.04R
$$

MTZ008-052>055-031100-
SOUTHWEST MONTANA

CITY           SKY/WX    TMP DP  RH WIND       PRES   REMARKS
BOZEMAN        CLOUDY    26  24  92 S3        30.00
DILLON         CLOUDY    27  16  63 SW14      30.01F WCI  16
W YELLOWSTONE  LGT SNOW  16  12  86 S12       30.08S VSB 3/4 WCI   3
ENNIS          CLOUDY    25  14  63 S21G26    30.07F WCI  10
THREE FORKS      N/A     31 -67   1 SW12      29.98F WCI  22
TWIN BRIDGES     N/A     30  13  49 SE10      30.00F WCI  21
$$

MTZ009-010-012-014-046-048-049-054-031100-
EAST SLOPES AND CENTRAL MONTANA

CITY           SKY/WX    TMP DP  RH WIND       PRES   REMARKS
CUT BANK       CLEAR     31  20  63 W21G31    29.77  WCI  18
MALMSTROM AFB  CLOUDY    33  24  68 SW29G37   29.83S WCI  20
AUGUSTA          N/A     33  20  60 W36G47    29.75F WCI  17
BOWMANS CRNR     N/A     29  19  65 S23       29.80F WCI  16
CHOTEAU          N/A     41  18  38 S9G36     29.77F
CONRAD           N/A     35  24  64 CALM      29.80S
FAIRFIELD      MOCLDY    36  19  48 SW15G23   29.80S WCI  27
POWER          MOCLDY    31  21  66 SW13      29.79F WCI  21
RAYNESFORD     CLOUDY    36  21  55 SW18G24   29.82F WCI  25
ULM            MOCLDY    34  23  64 W14G30    29.84F WCI  24
$$

MTZ011-013-016-021-045-047-050-051-031100-
NORTH CENTRAL MONTANA

CITY           SKY/WX    TMP DP  RH WIND       PRES   REMARKS
LEWISTOWN      CLEAR     28  19  69 SW14      29.81S WCI  17
N BAR RANCH    CLOUDY    27  16  63 SW3       29.82S
CHINOOK          N/A     37  23  56 SW13G22   29.75F WCI  29
DENTON         MOCLDY    32  21  63 SW18G24   29.77F WCI  21
GEYSER           N/A     31  20  62 W23G32    29.79S WCI  18
GRASS RANGE      N/A     31  19  62 W6        29.78S WCI  25
JUDITH GAP       N/A     27  18  69 SW12      29.81F WCI  16
ROY            MOCLDY    33  21  61 MISG      29.79F
STANFORD         N/A     32  20  60 W22       29.78F WCI  20
WINIFRED       CLOUDY    32  22  67 MISG      29.79F
$$

MTZ017>020-022>027-061-062-031100-
NORTHEAST MONTANA

CITY           SKY/WX    TMP DP  RH WIND       PRES   REMARKS
JORDAN           N/A     28  18  66 W7        29.85S WCI  21
SIDNEY         CLEAR     12   9  87 S3        29.91F
PLENTYWOOD       N/A     19  18  93 SE8       29.84F WCI   9
POPLAR           N/A     25  19  80 S5        29.86F
SCOBEY           N/A     23  15  71 SE8       29.80F WCI  14
$$

MTZ028>42-056>058-031100-
SOUTHCENTRAL AND SOUTHEAST MONTANA

CITY           SKY/WX    TMP DP  RH WIND       PRES   REMARKS
BIG TIMBER     MOCLDY    30  12  47 W29G40    29.89S WCI  15
EKALAKA          N/A     26  15  63 SE12      29.89F WCI  16
FORSYTH          N/A     27  18  69 CALM      29.88F
HARLOWTON      MOCLDY    31  20  62 W41G54    29.80F WCI  14
LAUREL           N/A     32   9  38 SW13      29.88F WCI  22
ROUNDUP          N/A     30  15  53 S5        29.78F
$$

REGIONAL REPORTS...DAKOTAS

CITY           SKY/WX    TMP DP  RH WIND       PRES   REMARKS
WILLISTON      CLEAR     21  18  88 S3        29.91
MINOT          CLEAR     21  19  92 SE6       29.98  WCI  13
DICKINSON      CLEAR     17  14  88 S12       29.94F WCI   4
BEACH            N/A     16  16 100 SE9       29.94F WCI   4
CROSBY           N/A     19  19 100 S15       29.90F WCI   5
TIOGA            N/A     21  21 100 S12       29.92F WCI   9
WATFORD CITY     N/A     19  18  93 E5        29.93F
BISMARCK       CLEAR     18  17  96 SE10      30.09  WCI   6
BUFFALO SD       N/A     20  17  88 S10       29.89F WCI   9
RAPID CITY     CLOUDY    19  15  84 SE6       30.00F WCI  11
$$

REGIONAL REPORTS...WYOMING/IDAHO/WASHINGTON

CITY           SKY/WX    TMP DP  RH WIND       PRES   REMARKS
GILLETTE       CLEAR     23  15  71 S20G25    29.89  WCI   8
BUFFALO WY     CLOUDY    23   6  48 W5        29.87
CODY           CLOUDY    30  10  43 W15G38    29.91  WCI  19
YELLOWSTONE LA   N/A     13   8  81 VRB6      30.05R WCI   4
SALMON         CLOUDY    28  21  74 NE3       30.11S
SPOKANE        MOCLDY    37  34  89 SW15      30.04R WCI  28
$$

REGIONAL REPORTS...ALBERTA

CITY           SKY/WX    TMP DP  RH WIND       PRES   REMARKS
EDMONTON       CLOUDY    23  21  93 W3        29.65S
CALGARY        MOCLDY    37  16  41 W13       29.66S WCI  29
LETHBRIDGE     MOCLDY    37  21  52 W32G40    29.71R WCI  25
MEDICINE HAT   LGT RAIN  34  27  75 SW9       29.69R WCI  26
WATERTON GATE    N/A     32  23  69 SW14G23     N/A  WCI  22
CARDSTON         N/A     34  19  55 W10G17      N/A  WCI  26
MILK RIVER       N/A     34  21  60 W23G30      N/A  WCI  22
$$

REGIONAL REPORTS...SASKATCHEWAN

CITY           SKY/WX    TMP DP  RH WIND       PRES   REMARKS
SWIFT CURRENT  CLOUDY    32  30  93 SW18G25   29.64F WCI  20
REGINA         CLEAR     18  16  93 SE13      29.79F WCI   4
SASKATOON      MOCLDY    25  21  86 E12       29.72F WCI  14
ROCKGLEN         N/A     25  21  86 SW13        N/A  WCI  13
$$



USA.gov is the U.S. government's official web portal to all federal, state and local government web resources and services.